Location: Unspecified
(0.0000°N, 0.0000°E)
Time: 23:44:00
(UTC+00:00)

Hubble Space Telescope - Pass Details

Date: 17 February 2020
Orbit: 536 x 540 km, 28.5° (Epoch: 26 February)

Event Time Altitude Azimuth Distance (km) Brightness Sun altitude
Exits shadow 04:11:44 25° 73° (ENE) 1,091 2.8 -29.8°
Drops below altitude 10° 04:13:55 10° 96° (E) 1,778 4.3 -29.3°
Sets 04:16:19 0° 105° (ESE) 2,669 5.6 -28.7°
